Time,TemperatureF,DewpointF,PressureIn,WindDirection,WindDirectionDegrees,WindSpeedMPH,WindSpeedGustMPH,Humidity,HourlyPrecipIn,Conditions,Clouds,dailyrainin,SoftwareType,DateUTC
2013-09-08 00:00:00,63.7,63.1,17.72,SSE,155,0.0,0.0,98,0.00,,---,0.00,VWS V14.01,2013-09-08 04:00:00,
2013-09-08 00:01:00,63.5,62.9,17.72,SSE,155,0.0,0.0,98,0.00,,---,0.00,VWS V14.01,2013-09-08 04:01:00,
2013-09-08 00:02:00,63.5,62.9,17.72,SSE,155,0.0,0.0,98,0.00,,---,0.00,VWS V14.01,2013-09-08 04:02:00,
2013-09-08 00:07:00,63.5,62.9,17.72,SSE,155,0.0,0.0,98,0.00,,---,0.00,VWS V14.01,2013-09-08 04:07:00,
2013-09-08 00:12:00,63.5,62.9,17.72,SSE,155,0.0,0.0,98,0.00,,---,0.00,VWS V14.01,2013-09-08 04:12:00,
2013-09-08 00:17:00,63.3,62.8,17.72,SSE,155,0.0,0.0,98,0.00,,---,0.00,VWS V14.01,2013-09-08 04:17:00,
2013-09-08 00:22:00,63.1,62.6,17.72,SSE,155,0.0,0.0,98,0.00,,---,0.00,VWS V14.01,2013-09-08 04:22:00,
2013-09-08 00:27:00,63.1,62.6,17.72,SSE,155,0.0,0.0,98,0.00,,---,0.00,VWS V14.01,2013-09-08 04:27:00,
2013-09-08 00:32:00,63.1,62.6,17.72,SSE,155,0.0,0.0,98,0.00,,---,0.00,VWS V14.01,2013-09-08 04:32:00,
2013-09-08 00:37:00,63.1,62.6,17.72,SSE,155,0.0,0.0,98,0.00,,---,0.00,VWS V14.01,2013-09-08 04:37:00,
2013-09-08 00:42:00,63.0,62.4,17.72,SSE,155,0.0,0.0,98,0.00,,---,0.00,VWS V14.01,2013-09-08 04:42:00,
2013-09-08 00:47:00,63.0,62.4,17.72,SSE,155,0.0,0.0,98,0.00,,---,0.00,VWS V14.01,2013-09-08 04:47:00,
2013-09-08 00:52:00,63.0,62.4,17.72,SSE,155,0.0,0.0,98,0.00,,---,0.00,VWS V14.01,2013-09-08 04:52:00,
2013-09-08 00:57:00,63.0,62.4,17.72,SSE,155,0.0,0.0,98,0.00,,---,0.00,VWS V14.01,2013-09-08 04:57:00,
2013-09-08 01:02:00,62.8,62.2,17.72,SSE,155,0.0,0.0,98,0.00,,---,0.00,VWS V14.01,2013-09-08 05:02:00,
2013-09-08 01:07:00,62.8,62.2,17.72,SSE,155,0.0,0.0,98,0.00,,---,0.00,VWS V14.01,2013-09-08 05:07:00,
2013-09-08 01:12:00,62.6,62.0,17.72,SSE,155,0.0,0.0,98,0.00,,---,0.00,VWS V14.01,2013-09-08 05:12:00,
2013-09-08 01:17:00,62.8,62.2,17.72,SSE,155,0.0,0.0,98,0.00,,---,0.00,VWS V14.01,2013-09-08 05:17:00,
2013-09-08 01:22:00,62.6,62.0,17.72,SSE,155,0.0,0.0,98,0.00,,---,0.00,VWS V14.01,2013-09-08 05:22:00,
2013-09-08 01:27:00,62.6,62.0,17.72,SSE,155,0.0,0.0,98,0.00,,---,0.00,VWS V14.01,2013-09-08 05:27:00,
2013-09-08 01:32:00,62.6,62.0,17.72,SSE,155,0.0,0.0,98,0.00,,---,0.00,VWS V14.01,2013-09-08 05:32:00,
2013-09-08 01:37:00,62.6,62.0,17.72,SSE,155,0.0,0.0,98,0.00,,---,0.00,VWS V14.01,2013-09-08 05:37:00,
2013-09-08 01:42:00,62.6,62.0,17.72,SSE,155,0.0,0.0,98,0.00,,---,0.00,VWS V14.01,2013-09-08 05:42:00,
2013-09-08 01:47:00,62.4,61.8,17.72,SSE,155,0.0,0.0,98,0.00,,---,0.00,VWS V14.01,2013-09-08 05:47:00,
2013-09-08 01:52:00,62.4,61.8,17.72,SSE,155,0.0,0.0,98,0.00,,---,0.00,VWS V14.01,2013-09-08 05:52:00,
2013-09-08 01:57:00,62.2,61.7,17.72,SSE,155,0.0,0.0,98,0.00,,---,0.00,VWS V14.01,2013-09-08 05:57:00,
2013-09-08 02:02:00,62.2,61.7,17.72,SSE,155,0.0,0.0,98,0.00,,---,0.00,VWS V14.01,2013-09-08 06:02:00,
2013-09-08 02:07:00,62.2,61.7,17.72,SSE,155,0.0,0.0,98,0.00,,---,0.00,VWS V14.01,2013-09-08 06:07:00,
2013-09-08 02:12:00,62.1,61.5,17.72,SSE,155,0.0,0.0,98,0.00,,---,0.00,VWS V14.01,2013-09-08 06:12:00,
2013-09-08 02:17:00,62.1,61.5,17.72,SSE,155,0.0,0.0,98,0.00,,---,0.00,VWS V14.01,2013-09-08 06:17:00,
2013-09-08 02:22:00,62.1,61.5,17.72,SSE,155,0.0,0.0,98,0.00,,---,0.00,VWS V14.01,2013-09-08 06:22:00,
2013-09-08 02:27:00,62.1,61.5,17.72,SSE,155,0.0,0.0,98,0.00,,---,0.00,VWS V14.01,2013-09-08 06:27:00,
2013-09-08 02:32:00,62.1,61.5,17.72,SSE,155,0.0,0.0,98,0.00,,---,0.00,VWS V14.01,2013-09-08 06:32:00,
2013-09-08 02:37:00,61.9,61.3,17.72,SSE,155,0.0,0.0,98,0.00,,---,0.00,VWS V14.01,2013-09-08 06:37:00,
2013-09-08 02:42:00,61.9,61.3,17.72,SSE,155,0.0,0.0,98,0.00,,---,0.00,VWS V14.01,2013-09-08 06:42:00,
2013-09-08 02:47:00,61.9,61.3,17.72,SSE,155,0.0,0.0,98,0.00,,---,0.00,VWS V14.01,2013-09-08 06:47:00,
2013-09-08 02:52:00,61.7,61.1,17.72,SSE,155,0.0,0.0,98,0.00,,---,0.00,VWS V14.01,2013-09-08 06:52:00,
2013-09-08 02:57:00,61.7,61.1,17.72,SSE,155,0.0,0.0,98,0.00,,---,0.00,VWS V14.01,2013-09-08 06:57:00,
2013-09-08 03:02:00,61.5,61.0,17.72,SSE,155,0.0,0.0,98,0.00,,---,0.00,VWS V14.01,2013-09-08 07:02:00,
2013-09-08 03:07:00,61.5,61.0,17.72,SSE,155,0.0,0.0,98,0.00,,---,0.00,VWS V14.01,2013-09-08 07:07:00,
2013-09-08 03:12:00,61.3,60.8,17.72,SSE,155,0.0,0.0,98,0.00,,---,0.00,VWS V14.01,2013-09-08 07:12:00,
2013-09-08 03:17:00,61.3,60.8,17.72,SSE,155,0.0,0.0,98,0.00,,---,0.00,VWS V14.01,2013-09-08 07:17:00,
2013-09-08 03:22:00,61.3,60.8,17.72,SSE,155,0.0,0.0,98,0.00,,---,0.00,VWS V14.01,2013-09-08 07:22:00,
2013-09-08 03:27:00,61.3,60.8,17.72,SSE,155,0.0,0.0,98,0.00,,---,0.00,VWS V14.01,2013-09-08 07:27:00,
2013-09-08 03:32:00,61.2,60.6,17.72,SSE,155,0.0,0.0,98,0.00,,---,0.00,VWS V14.01,2013-09-08 07:32:00,
2013-09-08 03:37:00,61.2,60.6,17.72,SSE,155,0.0,0.0,98,0.00,,---,0.00,VWS V14.01,2013-09-08 07:37:00,
2013-09-08 03:42:00,61.0,60.4,17.72,SSE,155,0.0,0.0,98,0.00,,---,0.00,VWS V14.01,2013-09-08 07:42:00,
2013-09-08 03:47:00,61.0,60.4,17.72,SSE,155,0.0,0.0,98,0.00,,---,0.00,VWS V14.01,2013-09-08 07:47:00,
2013-09-08 03:52:00,61.0,60.4,17.72,SSE,155,0.0,0.0,98,0.00,,---,0.00,VWS V14.01,2013-09-08 07:52:00,
2013-09-08 03:57:00,61.0,60.4,17.72,SSE,155,0.0,0.0,98,0.00,,---,0.00,VWS V14.01,2013-09-08 07:57:00,
2013-09-08 04:02:00,61.0,60.4,17.72,SSE,155,0.0,0.0,98,0.00,,---,0.00,VWS V14.01,2013-09-08 08:02:00,
2013-09-08 04:07:00,60.8,60.2,17.72,SSE,155,0.0,0.0,98,0.00,,---,0.00,VWS V14.01,2013-09-08 08:07:00,
2013-09-08 04:12:00,60.8,60.2,17.72,SSE,155,0.0,0.0,98,0.00,,---,0.00,VWS V14.01,2013-09-08 08:12:00,
2013-09-08 04:17:00,60.8,60.2,17.72,SSE,155,0.0,0.0,98,0.00,,---,0.00,VWS V14.01,2013-09-08 08:17:00,
2013-09-08 04:22:00,60.8,60.2,17.72,SSE,155,0.0,0.0,98,0.00,,---,0.00,VWS V14.01,2013-09-08 08:22:00,
2013-09-08 04:27:00,60.8,60.2,17.72,SSE,155,0.0,0.0,98,0.00,,---,0.00,VWS V14.01,2013-09-08 08:27:00,
2013-09-08 04:32:00,60.8,60.2,17.72,SSE,155,0.0,0.0,98,0.00,,---,0.00,VWS V14.01,2013-09-08 08:32:00,
2013-09-08 04:37:00,60.8,60.2,17.72,SSE,155,0.0,0.0,98,0.00,,---,0.00,VWS V14.01,2013-09-08 08:37:00,
2013-09-08 04:42:00,60.8,60.2,17.72,SSE,155,0.0,0.0,98,0.00,,---,0.00,VWS V14.01,2013-09-08 08:42:00,
2013-09-08 04:47:00,60.6,60.1,17.72,SSE,155,0.0,0.0,98,0.00,,---,0.00,VWS V14.01,2013-09-08 08:47:00,
2013-09-08 04:52:00,60.6,60.1,17.72,SSE,155,0.0,0.0,98,0.00,,---,0.00,VWS V14.01,2013-09-08 08:52:00,
2013-09-08 04:57:00,60.8,60.2,17.72,SSE,155,0.0,0.0,98,0.00,,---,0.00,VWS V14.01,2013-09-08 08:57:00,
2013-09-08 05:02:00,61.0,60.4,17.72,SSE,155,0.0,0.0,98,0.00,,---,0.00,VWS V14.01,2013-09-08 09:02:00,
2013-09-08 05:07:00,61.2,60.6,17.72,SSE,155,0.0,0.0,98,0.00,,---,0.00,VWS V14.01,2013-09-08 09:07:00,
2013-09-08 05:12:00,61.3,60.8,17.72,SSE,155,0.0,0.0,98,0.00,,---,0.00,VWS V14.01,2013-09-08 09:12:00,
2013-09-08 05:17:00,61.3,60.8,17.72,SSE,155,0.0,0.0,98,0.00,,---,0.00,VWS V14.01,2013-09-08 09:17:00,
2013-09-08 05:22:00,61.5,61.0,17.72,SSE,155,0.0,0.0,98,0.00,,---,0.00,VWS V14.01,2013-09-08 09:22:00,
2013-09-08 05:27:00,61.5,61.0,17.72,SSE,155,0.0,0.0,98,0.00,,---,0.00,VWS V14.01,2013-09-08 09:27:00,
2013-09-08 05:32:00,61.5,61.0,17.72,SSE,155,0.0,0.0,98,0.00,,---,0.00,VWS V14.01,2013-09-08 09:32:00,
2013-09-08 05:37:00,61.3,60.8,17.72,SSE,155,0.0,0.0,98,0.00,,---,0.00,VWS V14.01,2013-09-08 09:37:00,
2013-09-08 05:42:00,61.2,60.6,17.72,SSE,155,0.0,0.0,98,0.00,,---,0.00,VWS V14.01,2013-09-08 09:42:00,
2013-09-08 05:47:00,61.0,60.4,17.72,SSE,155,0.0,0.0,98,0.00,,---,0.00,VWS V14.01,2013-09-08 09:47:00,
2013-09-08 05:52:00,61.0,60.4,17.72,SSE,155,0.0,0.0,98,0.00,,---,0.00,VWS V14.01,2013-09-08 09:52:00,
2013-09-08 05:57:00,60.8,60.2,17.72,SSE,155,0.0,0.0,98,0.00,,---,0.00,VWS V14.01,2013-09-08 09:57:00,
2013-09-08 06:02:00,61.0,60.4,17.72,SSE,155,0.0,0.0,98,0.00,,---,0.00,VWS V14.01,2013-09-08 10:02:00,
2013-09-08 06:07:00,60.8,60.2,17.72,SSE,155,0.0,0.0,98,0.00,,---,0.00,VWS V14.01,2013-09-08 10:07:00,
2013-09-08 06:12:00,60.8,60.2,17.72,SSE,155,0.0,0.0,98,0.00,,---,0.00,VWS V14.01,2013-09-08 10:12:00,
2013-09-08 06:17:00,60.8,60.2,17.72,SSE,155,0.0,0.0,98,0.00,,---,0.00,VWS V14.01,2013-09-08 10:17:00,
2013-09-08 06:22:00,60.6,60.1,17.72,SSE,155,0.0,0.0,98,0.00,,---,0.00,VWS V14.01,2013-09-08 10:22:00,
2013-09-08 06:27:00,60.6,60.1,17.72,SSE,155,0.0,0.0,98,0.00,,---,0.00,VWS V14.01,2013-09-08 10:27:00,
2013-09-08 06:32:00,60.4,59.9,17.72,SSE,155,0.0,0.0,98,0.00,,---,0.00,VWS V14.01,2013-09-08 10:32:00,
2013-09-08 06:37:00,60.4,59.9,17.72,SSE,155,0.0,0.0,98,0.00,,---,0.00,VWS V14.01,2013-09-08 10:37:00,
2013-09-08 06:42:00,60.4,59.9,17.72,SSE,155,0.0,0.0,98,0.00,,---,0.00,VWS V14.01,2013-09-08 10:42:00,
2013-09-08 06:47:00,60.4,59.9,17.72,SSE,155,0.0,0.0,98,0.00,,---,0.00,VWS V14.01,2013-09-08 10:47:00,
2013-09-08 06:52:00,60.6,60.1,17.72,SSE,155,0.0,0.0,98,0.00,,---,0.00,VWS V14.01,2013-09-08 10:52:00,
2013-09-08 06:57:00,60.6,60.1,17.72,SSE,155,0.0,0.0,98,0.00,,---,0.00,VWS V14.01,2013-09-08 10:57:00,
2013-09-08 07:02:00,60.6,60.1,17.72,SSE,155,0.0,0.0,98,0.00,,---,0.00,VWS V14.01,2013-09-08 11:02:00,
2013-09-08 07:07:00,60.6,60.1,17.72,SSE,155,0.0,0.0,98,0.00,,---,0.00,VWS V14.01,2013-09-08 11:07:00,
2013-09-08 07:12:00,60.4,59.9,17.72,SSE,155,0.0,0.0,98,0.00,,---,0.00,VWS V14.01,2013-09-08 11:12:00,
2013-09-08 07:17:00,60.6,60.1,17.72,SSE,155,0.0,0.0,98,0.00,,---,0.00,VWS V14.01,2013-09-08 11:17:00,
2013-09-08 07:22:00,60.8,60.2,17.72,SSE,155,0.0,0.0,98,0.00,,---,0.00,VWS V14.01,2013-09-08 11:22:00,
2013-09-08 07:27:00,61.0,60.4,17.72,SSE,155,0.0,0.0,98,0.00,,---,0.00,VWS V14.01,2013-09-08 11:27:00,
2013-09-08 07:32:00,61.0,60.4,17.72,SSE,155,0.0,0.0,98,0.00,,---,0.00,VWS V14.01,2013-09-08 11:32:00,
2013-09-08 07:37:00,61.0,60.4,17.72,SSE,155,0.0,0.0,98,0.00,,---,0.00,VWS V14.01,2013-09-08 11:37:00,
2013-09-08 07:42:00,61.0,60.4,17.72,SSE,155,0.0,0.0,98,0.00,,---,0.00,VWS V14.01,2013-09-08 11:42:00,
2013-09-08 07:47:00,60.8,60.2,17.72,SSE,155,0.0,0.0,98,0.00,,---,0.00,VWS V14.01,2013-09-08 11:47:00,
2013-09-08 07:52:00,60.8,60.2,17.72,SSE,155,0.0,0.0,98,0.00,,---,0.00,VWS V14.01,2013-09-08 11:52:00,
2013-09-08 07:57:00,61.0,60.4,17.72,SSE,155,0.0,0.0,98,0.00,,---,0.00,VWS V14.01,2013-09-08 11:57:00,
2013-09-08 08:02:00,61.0,60.4,17.72,SSE,155,0.0,0.0,98,0.00,,---,0.00,VWS V14.01,2013-09-08 12:02:00,
2013-09-08 08:07:00,61.0,60.4,17.72,SSE,155,0.0,0.0,98,0.00,,---,0.00,VWS V14.01,2013-09-08 12:07:00,
2013-09-08 08:12:00,61.2,60.6,17.72,SSE,155,0.0,0.0,98,0.00,,---,0.00,VWS V14.01,2013-09-08 12:12:00,
2013-09-08 08:17:00,61.3,60.8,17.72,SSE,155,0.0,0.0,98,0.00,,---,0.00,VWS V14.01,2013-09-08 12:17:00,
2013-09-08 08:22:00,61.5,61.0,17.72,SSE,155,0.0,0.0,98,0.00,,---,0.00,VWS V14.01,2013-09-08 12:22:00,
2013-09-08 08:27:00,61.9,61.3,17.72,SSE,155,0.0,0.0,98,0.00,,---,0.00,VWS V14.01,2013-09-08 12:27:00,
2013-09-08 08:32:00,62.2,61.7,17.72,SSE,155,0.0,0.0,98,0.00,,---,0.00,VWS V14.01,2013-09-08 12:32:00,
2013-09-08 08:37:00,62.8,62.2,17.72,SSE,155,0.0,0.0,98,0.00,,---,0.00,VWS V14.01,2013-09-08 12:37:00,
2013-09-08 08:42:00,63.3,62.8,17.72,SSE,155,0.0,0.0,98,0.00,,---,0.00,VWS V14.01,2013-09-08 12:42:00,
2013-09-08 08:47:00,64.2,63.7,17.72,SSE,155,0.0,0.0,98,0.00,,---,0.00,VWS V14.01,2013-09-08 12:47:00,
2013-09-08 08:52:00,64.9,64.4,17.72,SSE,155,0.0,0.0,98,0.00,,---,0.00,VWS V14.01,2013-09-08 12:52:00,
2013-09-08 08:57:00,66.6,66.0,17.72,SSE,155,0.0,0.0,98,0.00,,---,0.00,VWS V14.01,2013-09-08 12:57:00,
2013-09-08 09:02:00,69.4,68.8,17.72,SSE,155,0.0,0.0,98,0.00,,---,0.00,VWS V14.01,2013-09-08 13:02:00,
2013-09-08 09:07:00,73.6,73.0,17.72,SSE,155,0.0,0.0,98,0.00,,---,0.00,VWS V14.01,2013-09-08 13:07:00,
2013-09-08 09:12:00,73.6,73.0,17.72,SSE,155,0.0,0.0,98,0.00,,---,0.00,VWS V14.01,2013-09-08 13:12:00,
2013-09-08 09:17:00,75.2,74.6,17.72,SSE,155,0.0,0.0,98,0.00,,---,0.00,VWS V14.01,2013-09-08 13:17:00,
2013-09-08 09:22:00,76.1,75.5,17.72,SSE,155,0.0,0.0,98,0.00,,---,0.00,VWS V14.01,2013-09-08 13:22:00,
2013-09-08 09:27:00,75.4,74.8,17.72,SSE,155,0.0,0.0,98,0.00,,---,0.00,VWS V14.01,2013-09-08 13:27:00,
2013-09-08 09:32:00,74.7,74.1,17.72,SSE,155,0.0,0.0,98,0.00,,---,0.00,VWS V14.01,2013-09-08 13:32:00,
2013-09-08 09:37:00,74.1,73.5,17.72,SSE,155,0.0,0.0,98,0.00,,---,0.00,VWS V14.01,2013-09-08 13:37:00,
2013-09-08 09:42:00,72.9,72.3,17.72,SSE,155,0.0,2.2,98,0.00,,---,0.00,VWS V14.01,2013-09-08 13:42:00,
2013-09-08 09:47:00,72.0,71.1,17.72,SSE,155,0.0,0.0,97,0.00,,---,0.00,VWS V14.01,2013-09-08 13:47:00,
2013-09-08 09:52:00,72.3,71.4,17.72,SSE,155,2.2,3.1,97,0.00,,---,0.00,VWS V14.01,2013-09-08 13:52:00,
2013-09-08 09:57:00,72.3,71.1,17.72,SSE,155,2.2,3.1,96,0.00,,---,0.00,VWS V14.01,2013-09-08 13:57:00,
2013-09-08 10:02:00,72.0,70.4,17.72,SSE,155,0.0,0.0,95,0.00,,---,0.00,VWS V14.01,2013-09-08 14:02:00,
2013-09-08 10:07:00,71.6,69.8,17.72,SSE,155,0.0,0.0,94,0.00,,---,0.00,VWS V14.01,2013-09-08 14:07:00,
2013-09-08 10:12:00,72.0,70.1,17.72,SSE,155,0.0,0.0,94,0.00,,---,0.00,VWS V14.01,2013-09-08 14:12:00,
2013-09-08 10:17:00,71.6,70.1,17.72,SSE,155,0.0,0.0,95,0.00,,---,0.00,VWS V14.01,2013-09-08 14:17:00,
2013-09-08 10:22:00,71.4,70.2,17.72,SSE,155,0.0,0.0,96,0.00,,---,0.00,VWS V14.01,2013-09-08 14:22:00,
2013-09-08 10:27:00,72.3,70.8,17.72,SSE,155,2.7,2.7,95,0.00,,---,0.00,VWS V14.01,2013-09-08 14:27:00,
2013-09-08 10:32:00,72.9,71.3,17.72,SSE,155,0.0,0.0,95,0.00,,---,0.00,VWS V14.01,2013-09-08 14:32:00,
2013-09-08 10:37:00,73.8,71.6,17.72,SSE,155,2.2,2.7,93,0.00,,---,0.00,VWS V14.01,2013-09-08 14:37:00,
2013-09-08 10:42:00,74.5,71.4,17.72,SSE,155,2.7,2.7,90,0.00,,---,0.00,VWS V14.01,2013-09-08 14:42:00,
2013-09-08 10:47:00,75.0,70.9,17.72,SSE,155,2.2,3.1,87,0.00,,---,0.00,VWS V14.01,2013-09-08 14:47:00,
2013-09-08 10:52:00,75.4,70.2,17.72,SSE,155,0.0,0.0,84,0.00,,---,0.00,VWS V14.01,2013-09-08 14:52:00,
2013-09-08 10:57:00,75.4,69.9,17.72,SSE,155,2.2,2.2,83,0.00,,---,0.00,VWS V14.01,2013-09-08 14:57:00,
2013-09-08 11:02:00,76.3,70.4,17.72,SE,137,2.7,3.6,82,0.00,,---,0.00,VWS V14.01,2013-09-08 15:02:00,
2013-09-08 11:07:00,77.4,70.3,17.72,ESE,113,3.1,3.1,79,0.00,,---,0.00,VWS V14.01,2013-09-08 15:07:00,
2013-09-08 11:12:00,78.6,70.8,17.72,SE,129,2.2,2.7,77,0.00,,---,0.00,VWS V14.01,2013-09-08 15:12:00,
2013-09-08 11:17:00,78.8,70.6,17.72,ESE,114,2.7,2.7,76,0.00,,---,0.00,VWS V14.01,2013-09-08 15:17:00,
2013-09-08 11:22:00,79.0,70.4,17.72,ESE,114,2.2,2.2,75,0.00,,---,0.00,VWS V14.01,2013-09-08 15:22:00,
2013-09-08 11:27:00,79.3,70.3,17.72,East,90,0.0,0.0,74,0.00,,---,0.00,VWS V14.01,2013-09-08 15:27:00,
2013-09-08 11:32:00,79.0,69.6,17.72,ESE,118,0.0,0.0,73,0.00,,---,0.00,VWS V14.01,2013-09-08 15:32:00,
2013-09-08 11:37:00,78.6,69.7,17.72,ESE,118,0.0,0.0,74,0.00,,---,0.00,VWS V14.01,2013-09-08 15:37:00,
2013-09-08 11:42:00,78.3,69.3,17.72,ESE,118,0.0,2.2,74,0.00,,---,0.00,VWS V14.01,2013-09-08 15:42:00,
2013-09-08 11:47:00,78.1,69.9,17.72,ESE,118,0.0,0.0,76,0.00,,---,0.00,VWS V14.01,2013-09-08 15:47:00,
2013-09-08 11:52:00,78.6,69.2,17.72,ESE,118,0.0,0.0,73,0.00,,---,0.00,VWS V14.01,2013-09-08 15:52:00,
2013-09-08 11:57:00,78.8,69.0,17.72,ESE,118,0.0,0.0,72,0.00,,---,0.00,VWS V14.01,2013-09-08 15:57:00,
2013-09-08 12:02:00,78.8,69.4,17.72,SE,135,2.2,2.2,73,0.00,,---,0.00,VWS V14.01,2013-09-08 16:02:00,
2013-09-08 12:07:00,79.2,69.4,17.72,SE,135,2.2,2.2,72,0.00,,---,0.00,VWS V14.01,2013-09-08 16:07:00,
2013-09-08 12:12:00,78.6,68.8,17.72,SE,135,0.0,0.0,72,0.00,,---,0.00,VWS V14.01,2013-09-08 16:12:00,
2013-09-08 12:17:00,78.8,69.4,17.72,SE,135,0.0,0.0,73,0.00,,---,0.00,VWS V14.01,2013-09-08 16:17:00,
2013-09-08 12:22:00,78.4,69.1,17.72,SE,135,2.7,2.7,73,0.00,,---,0.00,VWS V14.01,2013-09-08 16:22:00,
2013-09-08 12:27:00,78.1,68.3,17.72,NE,53,2.2,2.2,72,0.00,,---,0.00,VWS V14.01,2013-09-08 16:27:00,
2013-09-08 12:32:00,77.9,67.8,17.72,WSW,239,3.1,3.1,71,0.00,,---,0.00,VWS V14.01,2013-09-08 16:32:00,
2013-09-08 12:37:00,77.9,67.8,17.72,WSW,240,0.0,2.2,71,0.00,,---,0.00,VWS V14.01,2013-09-08 16:37:00,
2013-09-08 12:42:00,77.5,67.4,17.72,WSW,240,0.0,0.0,71,0.00,,---,0.00,VWS V14.01,2013-09-08 16:42:00,
2013-09-08 12:47:00,77.2,67.9,17.72,WSW,240,0.0,0.0,73,0.00,,---,0.00,VWS V14.01,2013-09-08 16:47:00,
2013-09-08 12:52:00,76.8,68.3,17.72,WSW,240,0.0,0.0,75,0.00,,---,0.00,VWS V14.01,2013-09-08 16:52:00,
2013-09-08 12:57:00,77.5,69.0,17.72,WSW,240,0.0,0.0,75,0.00,,---,0.00,VWS V14.01,2013-09-08 16:57:00,
2013-09-08 13:02:00,78.3,69.3,17.72,SSE,156,3.6,3.6,74,0.00,,---,0.00,VWS V14.01,2013-09-08 17:02:00,
2013-09-08 13:07:00,78.3,68.9,17.72,SW,218,3.1,3.1,73,0.00,,---,0.00,VWS V14.01,2013-09-08 17:07:00,
2013-09-08 13:12:00,78.1,68.3,17.72,ESE,105,0.0,0.0,72,0.00,,---,0.00,VWS V14.01,2013-09-08 17:12:00,
2013-09-08 13:17:00,78.4,69.1,17.72,ESE,105,2.2,2.2,73,0.00,,---,0.00,VWS V14.01,2013-09-08 17:17:00,
2013-09-08 13:22:00,78.3,68.1,17.72,SW,216,0.0,0.0,71,0.00,,---,0.00,VWS V14.01,2013-09-08 17:22:00,
2013-09-08 13:27:00,78.3,68.9,17.72,SW,215,0.0,0.0,73,0.00,,---,0.00,VWS V14.01,2013-09-08 17:27:00,
2013-09-08 13:32:00,78.3,68.9,17.72,SW,216,0.0,0.0,73,0.00,,---,0.00,VWS V14.01,2013-09-08 17:32:00,
2013-09-08 13:37:00,78.1,68.3,17.72,South,181,0.0,0.0,72,0.00,,---,0.00,VWS V14.01,2013-09-08 17:37:00,
2013-09-08 13:42:00,78.1,68.3,17.72,SSE,155,3.6,3.6,72,0.00,,---,0.00,VWS V14.01,2013-09-08 17:42:00,
2013-09-08 13:47:00,79.0,67.9,17.72,SSE,155,2.2,2.2,69,0.00,,---,0.00,VWS V14.01,2013-09-08 17:47:00,
2013-09-08 13:52:00,80.1,68.6,17.72,South,186,2.7,2.7,68,0.00,,---,0.00,VWS V14.01,2013-09-08 17:52:00,
2013-09-08 13:57:00,80.4,68.5,17.72,SSE,154,0.0,0.0,67,0.00,,---,0.00,VWS V14.01,2013-09-08 17:57:00,
2013-09-08 14:02:00,80.4,67.1,17.72,NE,50,2.7,3.1,64,0.00,,---,0.00,VWS V14.01,2013-09-08 18:02:00,
2013-09-08 14:07:00,80.4,67.6,17.72,NE,50,0.0,0.0,65,0.00,,---,0.00,VWS V14.01,2013-09-08 18:07:00,
2013-09-08 14:12:00,80.1,67.2,17.72,ENE,64,3.1,3.1,65,0.00,,---,0.00,VWS V14.01,2013-09-08 18:12:00,
2013-09-08 14:17:00,79.7,67.3,17.72,ENE,66,2.2,2.2,66,0.00,,---,0.00,VWS V14.01,2013-09-08 18:17:00,
2013-09-08 14:22:00,79.2,67.7,17.72,ENE,66,0.0,0.0,68,0.00,,---,0.00,VWS V14.01,2013-09-08 18:22:00,
2013-09-08 14:27:00,78.6,67.2,17.72,WSW,248,2.2,3.1,68,0.00,,---,0.00,VWS V14.01,2013-09-08 18:27:00,
2013-09-08 14:32:00,78.3,66.8,17.72,WSW,257,0.0,0.0,68,0.00,,---,0.00,VWS V14.01,2013-09-08 18:32:00,
2013-09-08 14:37:00,77.9,66.5,17.72,WSW,257,2.7,2.7,68,0.00,,---,0.00,VWS V14.01,2013-09-08 18:37:00,
2013-09-08 14:42:00,77.4,66.0,17.72,WSW,242,0.0,0.0,68,0.00,,---,0.00,VWS V14.01,2013-09-08 18:42:00,
2013-09-08 14:47:00,77.2,66.7,17.72,WSW,241,2.2,2.2,70,0.00,,---,0.00,VWS V14.01,2013-09-08 18:47:00,
2013-09-08 14:52:00,77.2,67.9,17.72,WSW,241,2.2,2.2,73,0.00,,---,0.00,VWS V14.01,2013-09-08 18:52:00,
2013-09-08 14:57:00,77.5,67.8,17.72,WSW,241,0.0,0.0,72,0.00,,---,0.00,VWS V14.01,2013-09-08 18:57:00,
2013-09-08 15:02:00,77.9,68.6,17.72,WSW,241,0.0,0.0,73,0.00,,---,0.00,VWS V14.01,2013-09-08 19:02:00,
2013-09-08 15:07:00,78.3,69.3,17.72,WSW,241,3.1,3.1,74,0.00,,---,0.00,VWS V14.01,2013-09-08 19:07:00,
2013-09-08 15:12:00,78.4,69.1,17.72,WSW,241,0.0,0.0,73,0.00,,---,0.00,VWS V14.01,2013-09-08 19:12:00,
2013-09-08 15:17:00,78.4,69.1,17.72,WSW,241,2.2,2.2,73,0.00,,---,0.00,VWS V14.01,2013-09-08 19:17:00,
2013-09-08 15:22:00,78.4,68.7,17.72,WSW,241,0.0,2.7,72,0.00,,---,0.00,VWS V14.01,2013-09-08 19:22:00,
2013-09-08 15:27:00,78.4,68.3,17.72,WSW,241,0.0,0.0,71,0.00,,---,0.00,VWS V14.01,2013-09-08 19:27:00,
2013-09-08 15:32:00,78.6,68.0,17.72,WSW,241,2.7,2.7,70,0.00,,---,0.00,VWS V14.01,2013-09-08 19:32:00,
2013-09-08 15:37:00,79.2,68.1,17.72,SW,235,2.7,3.1,69,0.00,,---,0.00,VWS V14.01,2013-09-08 19:37:00,
2013-09-08 15:42:00,79.3,67.9,17.72,SW,235,0.0,0.0,68,0.00,,---,0.00,VWS V14.01,2013-09-08 19:42:00,
2013-09-08 15:47:00,79.2,68.1,17.72,SW,235,0.0,0.0,69,0.00,,---,0.00,VWS V14.01,2013-09-08 19:47:00,
2013-09-08 15:52:00,79.0,68.4,17.72,SW,235,0.0,0.0,70,0.00,,---,0.00,VWS V14.01,2013-09-08 19:52:00,
2013-09-08 15:57:00,79.7,69.1,17.72,SW,235,3.6,3.6,70,0.00,,---,0.00,VWS V14.01,2013-09-08 19:57:00,
2013-09-08 16:02:00,79.5,68.9,17.72,SW,232,3.1,3.1,70,0.00,,---,0.00,VWS V14.01,2013-09-08 20:02:00,
2013-09-08 16:07:00,79.5,68.0,17.72,SW,216,0.0,0.0,68,0.00,,---,0.00,VWS V14.01,2013-09-08 20:07:00,
2013-09-08 16:12:00,79.7,67.8,17.72,East,94,3.6,3.6,67,0.00,,---,0.00,VWS V14.01,2013-09-08 20:12:00,
2013-09-08 16:17:00,79.5,67.6,17.72,ESE,121,0.0,0.0,67,0.00,,---,0.00,VWS V14.01,2013-09-08 20:17:00,
2013-09-08 16:22:00,80.1,68.1,17.72,ESE,112,0.0,0.0,67,0.00,,---,0.00,VWS V14.01,2013-09-08 20:22:00,
2013-09-08 16:27:00,80.8,67.9,17.72,South,182,3.1,3.1,65,0.00,,---,0.00,VWS V14.01,2013-09-08 20:27:00,
2013-09-08 16:32:00,80.2,67.4,17.72,SSW,197,0.0,2.2,65,0.00,,---,0.00,VWS V14.01,2013-09-08 20:32:00,
2013-09-08 16:37:00,79.7,66.0,17.72,East,81,4.9,4.9,63,0.00,,---,0.00,VWS V14.01,2013-09-08 20:37:00,
2013-09-08 16:42:00,79.2,66.8,17.72,East,94,0.0,0.0,66,0.00,,---,0.00,VWS V14.01,2013-09-08 20:42:00,
2013-09-08 16:47:00,79.0,66.2,17.72,ESE,102,2.7,2.7,65,0.00,,---,0.00,VWS V14.01,2013-09-08 20:47:00,
2013-09-08 16:52:00,78.4,66.2,17.72,ESE,102,0.0,0.0,66,0.00,,---,0.00,VWS V14.01,2013-09-08 20:52:00,
2013-09-08 16:57:00,78.3,66.8,17.72,ESE,102,0.0,2.2,68,0.00,,---,0.00,VWS V14.01,2013-09-08 20:57:00,
2013-09-08 17:02:00,78.1,66.7,17.72,SW,222,0.0,0.0,68,0.00,,---,0.00,VWS V14.01,2013-09-08 21:02:00,
2013-09-08 17:07:00,77.7,66.8,17.72,SW,222,0.0,0.0,69,0.00,,---,0.00,VWS V14.01,2013-09-08 21:07:00,
2013-09-08 17:12:00,77.0,66.5,17.72,SW,222,2.7,2.7,70,0.00,,---,0.00,VWS V14.01,2013-09-08 21:12:00,
2013-09-08 17:17:00,76.6,66.9,17.72,SW,222,0.0,0.0,72,0.00,,---,0.00,VWS V14.01,2013-09-08 21:17:00,
2013-09-08 17:22:00,76.1,66.8,17.72,SW,222,0.0,0.0,73,0.00,,---,0.00,VWS V14.01,2013-09-08 21:22:00,
2013-09-08 17:27:00,75.7,66.9,17.72,SW,222,0.0,0.0,74,0.00,,---,0.00,VWS V14.01,2013-09-08 21:27:00,
2013-09-08 17:32:00,75.4,67.3,17.72,SW,222,0.0,0.0,76,0.00,,---,0.00,VWS V14.01,2013-09-08 21:32:00,
2013-09-08 17:37:00,75.4,67.7,17.72,SW,222,0.0,0.0,77,0.00,,---,0.00,VWS V14.01,2013-09-08 21:37:00,
2013-09-08 17:42:00,75.4,67.3,17.72,SW,224,0.0,2.7,76,0.00,,---,0.00,VWS V14.01,2013-09-08 21:42:00,
2013-09-08 17:47:00,75.2,67.5,17.72,SW,232,0.0,0.0,77,0.00,,---,0.00,VWS V14.01,2013-09-08 21:47:00,
2013-09-08 17:52:00,75.2,67.1,17.72,SW,236,2.7,2.7,76,0.00,,---,0.00,VWS V14.01,2013-09-08 21:52:00,
2013-09-08 17:57:00,75.0,66.9,17.72,SW,236,2.2,2.2,76,0.00,,---,0.00,VWS V14.01,2013-09-08 21:57:00,
2013-09-08 18:02:00,74.8,67.2,17.72,ESE,109,0.0,0.0,77,0.00,,---,0.00,VWS V14.01,2013-09-08 22:02:00,
2013-09-08 18:07:00,74.8,67.5,17.72,East,96,0.0,2.2,78,0.00,,---,0.00,VWS V14.01,2013-09-08 22:07:00,
2013-09-08 18:12:00,74.7,67.7,17.72,East,96,0.0,0.0,79,0.00,,---,0.00,VWS V14.01,2013-09-08 22:12:00,
2013-09-08 18:17:00,74.7,67.7,17.72,East,96,0.0,0.0,79,0.00,,---,0.00,VWS V14.01,2013-09-08 22:17:00,
2013-09-08 18:22:00,74.5,67.2,17.72,East,96,0.0,0.0,78,0.00,,---,0.00,VWS V14.01,2013-09-08 22:22:00,
2013-09-08 18:27:00,74.5,67.2,17.72,East,96,0.0,0.0,78,0.00,,---,0.00,VWS V14.01,2013-09-08 22:27:00,
2013-09-08 18:32:00,74.5,67.6,17.72,East,96,0.0,0.0,79,0.00,,---,0.00,VWS V14.01,2013-09-08 22:32:00,
2013-09-08 18:37:00,74.1,67.6,17.72,East,96,0.0,0.0,80,0.00,,---,0.00,VWS V14.01,2013-09-08 22:37:00,
2013-09-08 18:42:00,73.8,67.6,17.72,East,96,0.0,0.0,81,0.00,,---,0.00,VWS V14.01,2013-09-08 22:42:00,
2013-09-08 18:47:00,73.6,67.8,17.72,East,96,0.0,0.0,82,0.00,,---,0.00,VWS V14.01,2013-09-08 22:47:00,
2013-09-08 18:52:00,73.2,68.4,17.72,East,96,0.0,0.0,85,0.00,,---,0.00,VWS V14.01,2013-09-08 22:52:00,
2013-09-08 18:57:00,72.9,68.4,17.72,East,96,0.0,0.0,86,0.00,,---,0.00,VWS V14.01,2013-09-08 22:57:00,
2013-09-08 19:02:00,72.7,68.6,17.72,East,96,0.0,0.0,87,0.00,,---,0.00,VWS V14.01,2013-09-08 23:02:00,
2013-09-08 19:07:00,72.3,68.6,17.72,East,96,0.0,0.0,88,0.00,,---,0.00,VWS V14.01,2013-09-08 23:07:00,
2013-09-08 19:12:00,72.0,68.6,17.72,East,96,0.0,0.0,89,0.00,,---,0.00,VWS V14.01,2013-09-08 23:12:00,
2013-09-08 19:17:00,71.8,68.7,17.72,East,96,0.0,0.0,90,0.00,,---,0.00,VWS V14.01,2013-09-08 23:17:00,
2013-09-08 19:22:00,71.4,69.0,17.72,East,96,0.0,0.0,92,0.00,,---,0.00,VWS V14.01,2013-09-08 23:22:00,
2013-09-08 19:27:00,71.2,68.8,17.72,East,96,0.0,0.0,92,0.00,,---,0.00,VWS V14.01,2013-09-08 23:27:00,
2013-09-08 19:32:00,70.9,68.4,17.72,East,96,0.0,0.0,92,0.00,,---,0.00,VWS V14.01,2013-09-08 23:32:00,
2013-09-08 19:37:00,70.7,68.3,17.72,East,96,0.0,0.0,92,0.00,,---,0.00,VWS V14.01,2013-09-08 23:37:00,
2013-09-08 19:42:00,70.3,68.2,17.72,East,96,0.0,0.0,93,0.00,,---,0.00,VWS V14.01,2013-09-08 23:42:00,
2013-09-08 19:47:00,70.3,68.2,17.72,East,96,0.0,0.0,93,0.00,,---,0.00,VWS V14.01,2013-09-08 23:47:00,
2013-09-08 19:52:00,70.2,68.1,17.72,East,96,0.0,0.0,93,0.00,,---,0.00,VWS V14.01,2013-09-08 23:52:00,
2013-09-08 19:57:00,70.0,67.9,17.72,East,96,0.0,0.0,93,0.00,,---,0.00,VWS V14.01,2013-09-08 23:57:00,
2013-09-08 20:02:00,69.8,67.7,17.72,East,96,0.0,0.0,93,0.00,,---,0.00,VWS V14.01,2013-09-09 00:02:00,
2013-09-08 20:07:00,69.6,67.8,17.72,East,96,0.0,0.0,94,0.00,,---,0.00,VWS V14.01,2013-09-09 00:07:00,
2013-09-08 20:12:00,69.4,67.6,17.72,East,96,0.0,0.0,94,0.00,,---,0.00,VWS V14.01,2013-09-09 00:12:00,
2013-09-08 20:17:00,69.1,67.9,17.72,East,96,0.0,0.0,96,0.00,,---,0.00,VWS V14.01,2013-09-09 00:17:00,
2013-09-08 20:22:00,68.9,67.7,17.72,East,96,0.0,0.0,96,0.00,,---,0.00,VWS V14.01,2013-09-09 00:22:00,
2013-09-08 20:27:00,68.9,68.0,17.72,East,96,0.0,0.0,97,0.00,,---,0.00,VWS V14.01,2013-09-09 00:27:00,
2013-09-08 20:32:00,68.9,68.0,17.72,East,96,0.0,0.0,97,0.00,,---,0.00,VWS V14.01,2013-09-09 00:32:00,
2013-09-08 20:37:00,68.9,68.0,17.72,East,96,2.2,2.2,97,0.00,,---,0.00,VWS V14.01,2013-09-09 00:37:00,
2013-09-08 20:42:00,68.9,68.0,17.72,East,96,0.0,0.0,97,0.00,,---,0.00,VWS V14.01,2013-09-09 00:42:00,
2013-09-08 20:47:00,68.7,67.8,17.72,East,96,0.0,0.0,97,0.00,,---,0.00,VWS V14.01,2013-09-09 00:47:00,
2013-09-08 20:52:00,68.7,67.8,17.72,East,96,0.0,0.0,97,0.00,,---,0.00,VWS V14.01,2013-09-09 00:52:00,
2013-09-08 20:57:00,68.5,67.7,17.72,East,96,0.0,0.0,97,0.00,,---,0.00,VWS V14.01,2013-09-09 00:57:00,
2013-09-08 21:02:00,68.5,67.7,17.72,East,96,0.0,0.0,97,0.00,,---,0.00,VWS V14.01,2013-09-09 01:02:00,
2013-09-08 21:07:00,68.5,67.7,17.72,East,96,0.0,0.0,97,0.00,,---,0.00,VWS V14.01,2013-09-09 01:07:00,
2013-09-08 21:12:00,68.4,67.8,17.72,East,96,0.0,0.0,98,0.00,,---,0.00,VWS V14.01,2013-09-09 01:12:00,
2013-09-08 21:17:00,68.4,67.8,17.72,East,96,0.0,0.0,98,0.00,,---,0.00,VWS V14.01,2013-09-09 01:17:00,
2013-09-08 21:22:00,68.2,67.6,17.72,East,96,0.0,0.0,98,0.00,,---,0.00,VWS V14.01,2013-09-09 01:22:00,
2013-09-08 21:27:00,68.0,67.4,17.72,East,96,0.0,0.0,98,0.00,,---,0.00,VWS V14.01,2013-09-09 01:27:00,
2013-09-08 21:32:00,67.8,67.2,17.72,East,96,0.0,0.0,98,0.00,,---,0.00,VWS V14.01,2013-09-09 01:32:00,
2013-09-08 21:37:00,67.8,67.2,17.72,East,96,0.0,0.0,98,0.00,,---,0.00,VWS V14.01,2013-09-09 01:37:00,
2013-09-08 21:42:00,67.8,67.2,17.72,East,96,0.0,0.0,98,0.00,,---,0.00,VWS V14.01,2013-09-09 01:42:00,
2013-09-08 21:47:00,67.6,67.1,17.72,East,96,0.0,0.0,98,0.00,,---,0.00,VWS V14.01,2013-09-09 01:47:00,
2013-09-08 21:52:00,67.8,67.2,17.72,East,96,0.0,0.0,98,0.00,,---,0.00,VWS V14.01,2013-09-09 01:52:00,
2013-09-08 21:57:00,67.8,67.2,17.72,East,96,0.0,0.0,98,0.00,,---,0.00,VWS V14.01,2013-09-09 01:57:00,
2013-09-08 22:02:00,67.8,67.2,17.72,East,96,0.0,0.0,98,0.00,,---,0.00,VWS V14.01,2013-09-09 02:02:00,
2013-09-08 22:07:00,68.0,67.4,17.72,East,96,0.0,0.0,98,0.00,,---,0.00,VWS V14.01,2013-09-09 02:07:00,
2013-09-08 22:12:00,68.0,67.4,17.72,East,96,0.0,0.0,98,0.00,,---,0.00,VWS V14.01,2013-09-09 02:12:00,
2013-09-08 22:17:00,68.2,67.6,17.72,East,96,0.0,0.0,98,0.00,,---,0.00,VWS V14.01,2013-09-09 02:17:00,
2013-09-08 22:22:00,68.2,67.6,17.72,East,96,0.0,0.0,98,0.00,,---,0.00,VWS V14.01,2013-09-09 02:22:00,
2013-09-08 22:27:00,68.2,67.6,17.72,East,96,0.0,0.0,98,0.00,,---,0.00,VWS V14.01,2013-09-09 02:27:00,
2013-09-08 22:32:00,68.2,67.6,17.72,East,96,0.0,0.0,98,0.00,,---,0.00,VWS V14.01,2013-09-09 02:32:00,
2013-09-08 22:37:00,68.2,67.6,17.72,East,96,0.0,0.0,98,0.00,,---,0.00,VWS V14.01,2013-09-09 02:37:00,
2013-09-08 22:42:00,68.2,67.6,17.72,East,96,2.2,2.2,98,0.00,,---,0.00,VWS V14.01,2013-09-09 02:42:00,
2013-09-08 22:47:00,68.0,67.4,17.72,East,96,2.2,2.2,98,0.00,,---,0.00,VWS V14.01,2013-09-09 02:47:00,
2013-09-08 22:52:00,68.0,67.4,17.72,East,96,2.2,2.2,98,0.00,,---,0.00,VWS V14.01,2013-09-09 02:52:00,
2013-09-08 22:57:00,68.0,67.4,17.72,East,96,2.2,2.2,98,0.00,,---,0.00,VWS V14.01,2013-09-09 02:57:00,
2013-09-08 23:02:00,67.8,67.2,17.72,East,96,2.2,2.2,98,0.00,,---,0.00,VWS V14.01,2013-09-09 03:02:00,
2013-09-08 23:07:00,67.8,67.2,17.72,East,96,2.2,2.2,98,0.00,,---,0.00,VWS V14.01,2013-09-09 03:07:00,
2013-09-08 23:12:00,67.8,67.2,17.72,East,96,2.2,2.2,98,0.00,,---,0.00,VWS V14.01,2013-09-09 03:12:00,
2013-09-08 23:17:00,67.8,67.2,17.72,East,96,0.0,0.0,98,0.00,,---,0.00,VWS V14.01,2013-09-09 03:17:00,
2013-09-08 23:22:00,67.8,67.2,17.72,East,96,0.0,0.0,98,0.00,,---,0.00,VWS V14.01,2013-09-09 03:22:00,
2013-09-08 23:27:00,67.6,67.1,17.72,East,96,0.0,0.0,98,0.00,,---,0.00,VWS V14.01,2013-09-09 03:27:00,
2013-09-08 23:32:00,67.3,66.7,17.72,East,96,0.0,0.0,98,0.00,,---,0.00,VWS V14.01,2013-09-09 03:32:00,
2013-09-08 23:37:00,67.1,66.5,17.72,East,96,0.0,0.0,98,0.00,,---,0.00,VWS V14.01,2013-09-09 03:37:00,
2013-09-08 23:42:00,66.9,66.3,17.72,East,96,0.0,0.0,98,0.00,,---,0.00,VWS V14.01,2013-09-09 03:42:00,
2013-09-08 23:47:00,66.9,66.3,17.72,East,96,0.0,0.0,98,0.00,,---,0.00,VWS V14.01,2013-09-09 03:47:00,
2013-09-08 23:52:00,66.7,66.2,17.72,East,96,0.0,0.0,98,0.00,,---,0.00,VWS V14.01,2013-09-09 03:52:00,
2013-09-08 23:57:00,66.6,66.0,17.72,East,96,0.0,0.0,98,0.00,,---,0.00,VWS V14.01,2013-09-09 03:57:00,